Regional Weather Roundup
Issued by NWS Jackson, KY

Home | Current Version | Previous Version | Text Only | Print | Product List | Glossary On
Versions: 1 2 3 4 5 6 7 8 9 10 11 12 13 14 15 16 17 18 19 20 21 22 23 24 25 26 27
000
ASUS43 KJKL 041310
RWRJKL

EAST KENTUCKY HOURLY WEATHER ROUNDUP
NATIONAL WEATHER SERVICE JACKSON KY
800 AM EST SUN DEC 04 2016

NOTE: "FAIR" INDICATES FEW OR NO CLOUDS BELOW 12,000 FEET WITH
NO SIGNIFICANT WEATHER AND/OR OBSTRUCTIONS TO VISIBILITY.

* THESE REPORTS ARE NOT UNDER NWS QUALITY CONTROL AND MAY NOT
  REPORT WEATHER SUCH AS PRECIPITATION AND FOG.

KYZ079-080-083-085-087-088-110-112-115-119-120-041400
...EASTERN KENTUCKY...

CITY           SKY/WX    TMP DP  RH WIND       PRES   REMARKS
JACKSON        CLOUDY    36  29  75 CALM      30.16F
LONDON         CLOUDY    37  34  89 CALM      30.15F
SOMERSET*      CLOUDY    36  36 100 CALM      30.17S
MONTICELLO*    CLOUDY    39  38  96 W3        30.17R
WILLIAMSBURG*  CLOUDY    37  37 100 SE5       30.14F WCI  34
MIDDLESBORO*   RAIN      38  38  97 CALM      30.18S
HARLAN APT*    CLOUDY    37  36  93 NE3       30.16F
PIKE CO APT*   CLOUDY    35  29  79 NE5       30.17S WCI  31
BIG SANDY APT* CLOUDY    36  31  82 CALM      30.18
MOREHEAD APT*  CLOUDY    37  27  65 VRB5      30.21S WCI  34
ASHLAND*       CLOUDY    37  28  70 CALM      30.21F
$$

KYZ035-036-041-042-044-050-067-078-099-041400
...CENTRAL KENTUCKY...

CITY           SKY/WX    TMP DP  RH WIND       PRES   REMARKS
MT STERLING*   CLOUDY    37  30  75 CALM      30.20R
FLEMING/MASON* CLOUDY    35  30  80 E3        30.21F
DANVILLE*      DRIZZLE   36  34  93 CALM      30.19R
LEXINGTON      CLOUDY    39  30  70 E5        30.19R
FRANKFORT      CLOUDY    38  31  76 E6        30.16F WCI  33
LOUISVILLE     LGT RAIN  41  31  67 E8        30.15F
LEBANON*         N/A     37  36  93 CALM      30.16S
GLASGOW*       RAIN     N/A N/A N/A E10       30.11F
BOWLING GREEN  CLOUDY    40  39  97 E9        30.10F FOG     WCI  34
$$

KYZ091>093-OHZ055-061-077-WVZ005-015-034-035-042-041400
...SOUTHERN OHIO/WEST VIRGINIA...

CITY           SKY/WX    TMP DP  RH WIND       PRES   REMARKS
COVINGTON      CLOUDY    37  30  75 SE9       30.19F WCI  30
COLUMBUS       CLOUDY    35  30  82 E8        30.23F WCI  29
DAYTON         CLOUDY    34  27  75 SE9       30.20F WCI  27
WILMINGTON     CLOUDY    33  30  88 E5        30.20S WCI  29
HUNTINGTON     CLOUDY    36  28  73 E3        30.20F
CHARLESTON     CLOUDY    33  30  88 CALM      30.21F
PINEVILLE*       N/A     35  28  75 MISG      30.23F
BECKLEY        CLOUDY    33  24  69 E7        30.17R WCI  27
BLUEFIELD      CLOUDY    31  24  75 E5        30.18R WCI  26
LOGAN CO APT*  CLOUDY    36  30  80 CALM      30.17F
$$

VAZ002-007-008-TNZ017-027-036-066-071-041400
...SOUTHWEST VIRGINIA/EAST TENNESSEE...

CITY           SKY/WX    TMP DP  RH WIND       PRES   REMARKS
WISE*          LGT RAIN  39  39 100 S7        30.15F WCI  34
JONESVILLE*    LGT RAIN  37  37 100 CALM      30.19F
ABINGDON*      DRIZZLE   37  36  93 E8        30.19S WCI  31
BRISTOL        LGT RAIN  37  35  92 E3        30.20S FOG
MORRISTOWN*    CLOUDY    37  37 100 NE6       30.14F FOG     WCI  33
SEVIERVILLE*   PTSUNNY   37  36  93 CALM      30.14F
KNOXVILLE      RAIN      39  37  92 E5        30.13F VSB 1
OAK RIDGE      LGT RAIN  40  38  93 VRB3      30.17F FOG
CROSSVILLE     LGT RAIN  38  37  97 E6        30.11R WCI  33
NASHVILLE      CLOUDY    42  40  92 SE10      30.07F
$$

...KEY TO REMARKS...
VSB - VISIBILITY IN MILES
WCI - WIND CHILL INDEX
HX  - HEAT INDEX

$$




USA.gov is the U.S. government's official web portal to all federal, state and local government web resources and services.